カタログに戻る

HULIANWANG DIGUI-138

運用中通信LEO
NORAD 67436·PAYLOAD·🇨🇳 China

打ち上げ Jan 13, 2026 から Wenchang Space Launch Site

Loading…

次のパス (今後24時間)

TLE

最新Source: Space-Track

元期: Sep 14, 2026, 00:49 UTC

1 67436U 26007B   26257.03468823 -.00000082  00000-0  90108-4 0  9990
2 67436  50.0049 127.3291 0000433 355.8627   4.2241 13.29328741 32601

AllMySatでHULIANWANG DIGUI-138をリアルタイム追跡

Download on the App Store